This is the latest recevied weather packets stored in our database for station/object KC5TIL. If no packets are shown the sender has not sent any weather packets the latest 10 day(s).
| Time | Temp. | Humidity | Pressure | Rain* | Wind** | Luminosity | Snow |
|---|---|---|---|---|---|---|---|
| 1777819485 | 22.22° C | 51% | 1023 hPa | 0 mm | - | 515 W/m² | - |
| 1777819183 | 21.67° C | 51% | 1022.9 hPa | 0 mm | - | 495 W/m² | - |
| 1777818879 | 21.67° C | 52% | 1023 hPa | 0 mm | - | 431 W/m² | - |
| 1777818575 | 21.67° C | 51% | 1023 hPa | 0 mm | - | 414 W/m² | - |
| 1777818273 | 21.67° C | 52% | 1023 hPa | 0 mm | - | 360 W/m² | - |
| 1777817969 | 22.22° C | 54% | 1023.1 hPa | 0 mm | - | 300 W/m² | - |
| 1777817667 | 21.11° C | 56% | 1023.1 hPa | 0 mm | - | 321 W/m² | - |
| 1777817364 | 21.11° C | 57% | 1023.1 hPa | 0 mm | - | 308 W/m² | - |
| 1777817061 | 20.56° C | 57% | 1023.2 hPa | 0 mm | - | 295 W/m² | - |
| 1777816756 | 20.56° C | 59% | 1023.2 hPa | 0 mm | - | 288 W/m² | - |
| 1777816455 | 20° C | 60% | 1023.2 hPa | 0 mm | - | 268 W/m² | - |
| 1777816152 | 20° C | 60% | 1023.2 hPa | 0 mm | - | 228 W/m² | - |
| 1777815850 | 20° C | 61% | 1023.2 hPa | 0 mm | - | 226 W/m² | - |
| 1777815547 | 19.44° C | 62% | 1023 hPa | 0 mm | - | 205 W/m² | - |
| 1777815244 | 19.44° C | 63% | 1023.1 hPa | 0 mm | - | 186 W/m² | - |
| 1777814939 | 18.89° C | 63% | 1023.1 hPa | 0 mm | - | 167 W/m² | - |
| 1777814636 | 18.33° C | 65% | 1023.2 hPa | 0 mm | - | 151 W/m² | - |
| 1777814333 | 18.33° C | 65% | 1022.9 hPa | 0 mm | - | 141 W/m² | - |
| 1777814030 | 17.78° C | 66% | 1023.3 hPa | 0 mm | - | 130 W/m² | - |
| 1777813727 | 17.22° C | 67% | 1023.1 hPa | 0 mm | - | 112 W/m² | - |
| 1777813425 | 17.22° C | 67% | 1023.1 hPa | 0 mm | - | 104 W/m² | - |
| 1777813122 | 16.67° C | 68% | 1023.1 hPa | 0 mm | - | 62 W/m² | - |
| 1777812820 | 16.67° C | 69% | 1023 hPa | 0 mm | - | 53 W/m² | - |
| 1777812516 | 16.67° C | 69% | 1022.9 hPa | 0 mm | - | 49 W/m² | - |
| 1777812214 | 16.67° C | 70% | 1023.1 hPa | 0 mm | - | 45 W/m² | - |
* Rain latest hour (hover to see other rain measurements)
** Current wind speed in m/s (hover to see current wind gust speed)